TimeMST,TemperatureF,Dew PointF,Humidity,Sea Level PressureIn,VisibilityMPH,Wind Direction,Wind SpeedMPH,Gust SpeedMPH,PrecipitationIn,Events,Conditions,WindDirDegrees,DateUTC
12:54 AM,37.0,30.0,76,30.19,10.0,SW,6.9,-,N/A,,Clear,230,2013-03-02 07:54:00
1:54 AM,37.0,30.0,76,30.20,10.0,SW,13.8,-,N/A,,Clear,230,2013-03-02 08:54:00
2:54 AM,37.9,30.0,73,30.18,10.0,SW,16.1,-,N/A,,Clear,220,2013-03-02 09:54:00
3:54 AM,37.0,28.9,73,30.17,10.0,SW,10.4,-,N/A,,Mostly Cloudy,220,2013-03-02 10:54:00
5:54 AM,37.0,28.9,73,30.18,10.0,WSW,11.5,-,N/A,,Partly Cloudy,240,2013-03-02 12:54:00
6:54 AM,35.1,28.0,76,30.19,10.0,SW,11.5,-,N/A,,Clear,220,2013-03-02 13:54:00
7:54 AM,37.0,28.9,73,30.18,10.0,SW,11.5,-,N/A,,Clear,230,2013-03-02 14:54:00
8:54 AM,39.9,30.0,68,30.16,10.0,WSW,8.1,-,N/A,,Clear,250,2013-03-02 15:54:00
9:54 AM,45.0,30.9,58,30.11,10.0,WSW,15.0,-,N/A,,Clear,250,2013-03-02 16:54:00
10:54 AM,46.9,30.9,54,30.10,10.0,WSW,18.4,-,N/A,,Clear,250,2013-03-02 17:54:00
11:54 AM,50.0,30.0,46,30.09,10.0,WNW,6.9,-,N/A,,Clear,290,2013-03-02 18:54:00
12:54 PM,45.0,28.9,53,30.09,10.0,West,10.4,-,N/A,,Partly Cloudy,280,2013-03-02 19:54:00
1:54 PM,42.1,30.0,62,30.08,10.0,SW,13.8,-,N/A,,Overcast,220,2013-03-02 20:54:00
2:54 PM,42.1,30.0,62,30.06,10.0,SSW,8.1,-,N/A,,Mostly Cloudy,210,2013-03-02 21:54:00
3:54 PM,42.1,28.9,60,30.04,10.0,SSW,10.4,-,N/A,,Overcast,210,2013-03-02 22:54:00
4:54 PM,41.0,28.9,62,30.03,10.0,South,8.1,-,N/A,,Overcast,190,2013-03-02 23:54:00
5:54 PM,41.0,28.9,62,29.99,10.0,SE,4.6,-,N/A,,Overcast,130,2013-03-03 00:54:00
6:54 PM,39.0,28.9,67,29.99,10.0,ESE,5.8,-,N/A,,Overcast,120,2013-03-03 01:54:00
7:54 PM,42.1,28.0,58,29.95,10.0,ENE,5.8,-,N/A,,Overcast,60,2013-03-03 02:54:00
8:54 PM,50.0,28.0,43,29.91,10.0,West,6.9,24.2,0.00,Rain,Light Rain,270,2013-03-03 03:54:00
9:54 PM,43.0,30.0,60,29.88,10.0,NNW,4.6,-,0.00,,Overcast,340,2013-03-03 04:54:00
10:54 PM,39.9,28.9,65,29.86,10.0,South,3.5,-,N/A,,Overcast,180,2013-03-03 05:54:00
11:54 PM,37.9,30.9,76,29.83,10.0,Calm,Calm,-,N/A,,Overcast,0,2013-03-03 06:54:00